FW4624 Weather Reports


time (UTC)temp
C
wind
direction
speed
KPH
gust
KPH
rain 1hr
cm
rain 24hr
cm
rain mn
cm
humidity
%
barometer
mb
20260507093535 11 325 3.2 6.4 0.00 0.33 0.00 85 1014.5
20260507093038 11 325 0.0 8.0 0.00 0.33 0.00 85 1014.4
20260507092534 11 325 3.2 8.0 0.00 0.33 0.00 85 1014.6
20260507092032 11 325 1.6 8.0 0.00 0.33 0.00 85 1014.5
20260507091534 11 324 1.6 6.4 0.00 0.33 0.00 86 1014.4
20260507091031 11 324 0.0 8.0 0.00 0.33 0.00 87 1014.4
20260507090530 11 324 3.2 8.0 0.00 0.33 0.00 87 1014.3
20260507090031 11 321 1.6 6.4 0.00 0.33 0.00 88 1014.3
20260507085530 10 321 3.2 6.4 0.00 0.33 0.00 88 1014.2
20260507085030 10 321 1.6 8.0 0.00 0.33 0.00 87 1014.3
20260507084529 10 319 1.6 8.0 0.00 0.33 0.00 87 1014.2
20260507084029 11 338 1.6 8.0 0.00 0.33 0.00 87 1014.2
20260507083529 10 338 1.6 8.0 0.00 0.33 0.00 88 1014.3
20260507083029 10 339 3.2 8.0 0.00 0.33 0.00 87 1014.2
20260507082528 10 339 0.0 8.0 0.00 0.33 0.00 88 1014.2
20260507082028 10 339 3.2 12.9 0.00 0.33 0.00 88 1014.1
20260507081527 11 333 0.0 8.0 0.00 0.33 0.00 88 1014.1
20260507081027 11 331 0.0 8.0 0.00 0.33 0.00 88 1014.1
20260507080527 11 333 1.6 8.0 0.00 0.33 0.00 89 1014.0
20260507080032 11 333 1.6 8.0 0.00 0.33 0.00 88 1014.0
20260507075525 11 333 1.6 6.4 0.00 0.33 0.00 89 1013.9
20260507075022 11 333 0.0 4.8 0.00 0.33 0.00 90 1013.8
20260507074521 10 333 1.6 9.7 0.00 0.33 0.00 90 1013.9
20260507074021 10 324 1.6 9.7 0.00 0.33 0.00 91 1013.7
20260507073520 10 315 0.0 4.8 0.00 0.33 0.00 91 1013.7
20260507073019 10 337 1.6 3.2 0.00 0.33 0.00 90 1013.7
20260507072519 10 337 1.6 6.4 0.00 0.33 0.00 91 1013.6
20260507072018 10 337 0.0 6.4 0.00 0.33 0.00 91 1013.5
20260507071548 10 337 0.0 8.0 0.00 0.33 0.00 91 1013.4
20260507071018 10 337 1.6 8.0 0.00 0.33 0.00 91 1013.4
20260507070518 9 337 3.2 8.0 0.00 0.33 0.00 91 1013.4
20260507070017 9 337 0.0 8.0 0.00 0.33 0.00 90 1013.4
20260507065517 9 336 3.2 8.0 0.00 0.33 0.00 90 1013.4
20260507065018 9 338 3.2 9.7 0.00 0.33 0.00 90 1013.4
20260507064516 9 338 4.8 9.7 0.00 0.33 0.00 89 1013.4
20260507064020 9 338 3.2 8.0 0.00 0.33 0.00 89 1013.2
20260507063514 9 338 0.0 8.0 0.00 0.33 0.00 89 1013.1
20260507063013 9 336 1.6 8.0 0.00 0.33 0.00 89 1013.0
20260507062516 9 335 1.6 6.4 0.00 0.33 0.00 89 1013.0
20260507062013 9 335 0.0 12.9 0.00 0.33 0.00 89 1012.9
20260507061514 9 335 3.2 12.9 0.00 0.33 0.00 89 1012.9
20260507061011 9 331 1.6 8.0 0.00 0.33 0.00 89 1012.8
20260507060511 9 327 1.6 8.0 0.00 0.33 0.00 89 1012.7
20260507060014 9 329 0.0 6.4 0.00 0.33 0.00 90 1012.7
20260507055511 9 329 0.0 8.0 0.00 0.33 0.00 90 1012.6
20260507055014 9 329 1.6 8.0 0.00 0.33 0.00 90 1012.5
20260507054511 9 329 1.6 8.0 0.00 0.33 0.00 90 1012.5
20260507054014 9 329 0.0 8.0 0.00 0.33 0.00 90 1012.3
20260507053509 9 328 1.6 8.0 0.00 0.33 0.00 90 1012.3
20260507053012 9 328 1.6 8.0 0.00 0.33 0.00 91 1012.3
20260507052510 9 325 1.6 6.4 0.00 0.33 0.00 91 1012.2
20260507052007 9 325 0.0 6.4 0.00 0.33 0.00 91 1012.2
20260507051507 9 332 1.6 6.4 0.00 0.33 0.00 91 1011.9
20260507051007 9 332 0.0 6.4 0.00 0.33 0.00 91 1012.0
20260507050506 9 331 1.6 6.4 0.00 0.33 0.00 91 1011.9
20260507050006 9 336 1.6 6.4 0.00 0.33 0.00 92 1011.8
20260507045507 8 336 0.0 6.4 0.00 0.33 0.00 92 1011.8
20260507045007 8 336 1.6 9.7 0.00 0.33 0.00 92 1011.7
20260507044503 8 336 1.6 9.7 0.00 0.33 0.00 92 1011.6
20260507044002 8 335 1.6 8.0 0.00 0.33 0.00 92 1011.6
20260507043501 8 335 1.6 6.4 0.00 0.33 0.00 92 1011.6
20260507043003 8 335 1.6 6.4 0.00 0.33 0.00 92 1011.5
20260507042600 9 335 0.0 6.4 0.00 0.33 0.00 92 1011.5
20260507042103 9 335 0.0 8.0 0.00 0.33 0.00 92 1011.4
20260507041559 9 335 0.0 4.8 0.00 0.33 0.00 92 1011.2
20260507041101 9 335 0.0 4.8 0.00 0.33 0.00 92 1011.3
20260507040559 9 335 0.0 6.4 0.00 0.33 0.00 92 1011.2
20260507035557 9 335 0.0 4.8 0.00 0.33 0.00 92 1011.2
20260507035057 9 335 0.0 4.8 0.00 0.33 0.00 92 1011.2
20260507034557 9 335 0.0 6.4 0.00 0.33 0.00 92 1011.2
20260507034055 9 335 0.0 6.4 0.00 0.33 0.00 92 1011.1
20260507033555 9 335 0.0 6.4 0.00 0.33 0.00 92 1011.1
20260507033055 9 336 1.6 6.4 0.00 0.33 0.00 92 1011.1
20260507032554 9 334 0.0 6.4 0.00 0.33 0.00 92 1011.1
20260507032053 9 334 0.0 6.4 0.00 0.33 0.00 92 1011.1
20260507031555 9 334 1.6 6.4 0.00 0.33 0.00 92 1011.1
20260507031052 9 334 1.6 4.8 0.00 0.33 0.00 92 1011.0
20260507030551 9 334 0.0 6.4 0.00 0.33 0.00 92 1011.0
20260507030051 9 334 1.6 6.4 0.00 0.33 0.00 92 1011.0
20260507025550 9 334 0.0 6.4 0.00 0.38 0.00 91 1010.9
20260507025052 9 334 0.0 8.0 0.00 0.38 0.00 91 1010.9
20260507024559 9 334 1.6 8.0 0.00 0.38 0.00 91 1010.8
20260507024048 9 334 0.0 8.0 0.00 0.38 0.00 91 1010.9
20260507023548 9 334 1.6 9.7 0.00 0.38 0.00 91 1010.9
20260507023047 9 338 3.2 9.7 0.00 0.38 0.00 91 1010.8
20260507022547 9 335 1.6 6.4 0.00 0.38 0.00 91 1010.9
20260507022047 9 335 1.6 6.4 0.00 0.38 0.00 91 1010.8
20260507021546 10 335 0.0 4.8 0.00 0.38 0.00 91 1010.8
20260507021046 10 335 0.0 4.8 0.00 0.38 0.00 91 1010.7
20260507020548 10 335 0.0 6.4 0.00 0.38 0.00 91 1010.8
20260507020045 10 335 0.0 6.4 0.00 0.38 0.00 91 1010.7
20260507015544 10 335 3.2 6.4 0.00 0.41 0.00 91 1010.6
20260507015044 10 334 1.6 9.7 0.00 0.41 0.00 90 1010.5
20260507014551 10 333 1.6 8.0 0.00 0.41 0.00 90 1010.5
20260507014044 10 333 1.6 6.4 0.00 0.41 0.00 90 1010.5
20260507013546 10 333 1.6 6.4 0.00 0.41 0.00 91 1010.5
20260507013045 10 333 1.6 6.4 0.00 0.41 0.00 91 1010.5
20260507012545 10 333 1.6 4.8 0.00 0.41 0.00 91 1010.4
20260507012043 10 333 1.6 6.4 0.00 0.41 0.00 91 1010.4
20260507011542 9 333 3.2 6.4 0.00 0.41 0.00 91 1010.3
20260507011042 10 333 3.2 8.0 0.00 0.41 0.00 90 1010.5
20260507010541 10 333 1.6 8.0 0.00 0.41 0.00 90 1010.4
20260507010041 10 333 0.0 6.4 0.00 0.41 0.00 90 1010.5
20260507005541 10 333 1.6 8.0 0.00 1.37 0.00 90 1010.4
20260507005040 10 333 1.6 8.0 0.00 1.37 0.00 90 1010.4
20260507004544 10 333 1.6 6.4 0.00 1.37 0.00 90 1010.5
20260507004039 10 333 1.6 6.4 0.00 1.37 0.00 89 1010.4
20260507003538 10 333 1.6 8.0 0.00 1.37 0.00 89 1010.4
20260507003038 10 332 1.6 8.0 0.00 1.37 0.00 89 1010.3
20260507002538 10 337 1.6 9.7 0.00 1.37 0.00 89 1010.2
20260507002038 10 338 3.2 9.7 0.00 1.37 0.00 89 1010.2
20260507001546 10 337 1.6 12.9 0.00 1.37 0.00 89 1010.3
20260507001037 10 337 3.2 12.9 0.00 1.37 0.00 89 1010.2
20260507000536 10 338 3.2 9.7 0.00 1.37 0.00 88 1010.1
20260507000037 10 336 1.6 8.0 0.00 1.37 0.00 88 1010.1
20260506235537 10 336 3.2 8.0 0.00 1.52 0.00 88 1010.2
20260506235035 10 337 1.6 6.4 0.00 1.52 0.00 88 1010.2
20260506234535 10 337 0.0 4.8 0.00 1.52 0.00 88 1010.2
20260506234038 10 337 0.0 8.0 0.00 1.52 0.00 88 1010.1
20260506233535 10 337 3.2 9.7 0.00 1.52 0.00 88 1010.0
20260506233034 10 337 3.2 12.9 0.00 1.52 0.00 88 1010.0
20260506232535 10 329 1.6 12.9 0.00 1.52 0.00 88 1010.1
20260506232032 10 340 3.2 9.7 0.00 1.52 0.00 88 1009.9
20260506231531 10 340 3.2 6.4 0.00 1.52 0.00 89 1009.8
20260506231031 10 340 3.2 8.0 0.00 1.52 0.00 89 1009.8
20260506230531 10 340 3.2 9.7 0.00 1.52 0.00 89 1009.8
20260506230030 10 340 3.2 9.7 0.00 1.52 0.00 89 1009.8
20260506225530 10 340 3.2 8.0 0.00 1.52 0.00 89 1009.8
20260506225029 10 340 3.2 9.7 0.00 1.52 0.00 89 1009.9
20260506224530 10 339 1.6 9.7 0.00 1.52 0.00 89 1009.8
20260506224029 10 347 1.6 8.0 0.00 1.52 0.00 89 1009.7
20260506223528 10 347 3.2 8.0 0.00 1.52 0.00 89 1009.7
20260506223028 10 347 1.6 8.0 0.00 1.52 0.00 89 1009.8
20260506222531 10 347 3.2 9.7 0.00 1.52 0.00 89 1009.7
20260506222028 10 341 4.8 9.7 0.00 1.52 0.00 89 1009.6
20260506221526 10 340 3.2 9.7 0.00 1.52 0.00 89 1009.6
20260506221026 10 342 3.2 12.9 0.00 1.52 0.00 89 1009.6
20260506220525 10 333 3.2 8.0 0.00 1.52 0.00 89 1009.3
20260506220034 10 329 1.6 8.0 0.00 1.52 0.00 89 1009.4
20260506215523 11 329 1.6 8.0 0.00 1.52 1.52 89 1009.3
20260506215024 11 329 1.6 6.4 0.00 1.52 1.52 89 1009.2
20260506214526 11 329 3.2 8.0 0.00 1.52 1.52 89 1009.3
20260506214023 11 328 3.2 8.0 0.00 1.52 1.52 88 1009.3
20260506213522 11 355 3.2 9.7 0.00 1.52 1.52 88 1009.3
20260506213025 11 355 6.4 9.7 0.00 1.52 1.52 89 1009.3
20260506212520 11 340 1.6 9.7 0.00 1.52 1.52 89 1009.2
20260506212020 11 340 4.8 12.9 0.00 1.52 1.52 89 1009.1
20260506211520 11 342 4.8 14.5 0.00 1.52 1.52 89 1009.0
20260506211020 11 337 3.2 14.5 0.00 1.52 1.52 89 1009.0
20260506210518 11 333 4.8 9.7 0.00 1.52 1.52 89 1008.9
20260506210019 11 338 4.8 9.7 0.00 1.52 1.52 90 1008.9
20260506205517 11 344 3.2 9.7 0.00 1.55 1.52 90 1008.9
20260506205017 11 346 3.2 9.7 0.00 1.55 1.52 90 1008.8
20260506204517 11 346 1.6 8.0 0.00 1.55 1.52 90 1008.8
20260506204017 11 346 3.2 8.0 0.00 1.55 1.52 90 1008.8
20260506203516 11 343 3.2 8.0 0.00 1.55 1.52 90 1008.9
20260506203020 11 344 3.2 8.0 0.00 1.55 1.52 90 1008.8
20260506202514 11 343 4.8 12.9 0.00 1.55 1.52 90 1008.7
20260506202017 11 344 4.8 12.9 0.00 1.55 1.52 90 1008.6
20260506201512 11 338 3.2 6.4 0.00 1.55 1.52 90 1008.6
20260506201012 11 337 1.6 6.4 0.00 1.55 1.52 90 1008.5
20260506200511 11 337 3.2 6.4 0.00 1.55 1.52 90 1008.5
20260506200015 11 336 3.2 9.7 0.00 1.55 1.52 90 1008.5
20260506195510 11 336 3.2 9.7 0.00 1.55 1.52 90 1008.4
20260506195011 11 336 3.2 12.9 0.00 1.55 1.52 90 1008.3
20260506194509 11 331 6.4 12.9 0.00 1.55 1.52 90 1008.0
20260506194008 12 342 3.2 8.0 0.03 1.55 1.52 90 1008.1
20260506193511 12 342 3.2 8.0 0.03 1.55 1.52 90 1008.1
20260506193006 12 340 1.6 8.0 0.03 1.55 1.52 90 1007.9
20260506192505 12 340 1.6 9.7 0.03 1.55 1.52 90 1007.8
20260506192005 12 340 4.8 9.7 0.03 1.55 1.52 90 1007.6
20260506191504 12 342 3.2 14.5 0.03 1.55 1.52 90 1007.5
20260506191004 12 339 4.8 14.5 0.03 1.55 1.52 90 1007.5
20260506190504 12 342 4.8 12.9 0.03 1.55 1.52 90 1007.4
20260506190005 12 338 3.2 8.0 0.03 1.55 1.52 90 1007.5
20260506185502 12 338 1.6 9.7 0.03 1.57 1.52 90 1007.4
20260506185002 12 337 1.6 9.7 0.03 1.57 1.52 90 1007.3
20260506184502 12 335 3.2 9.7 0.03 1.57 1.52 90 1007.3
20260506184004 12 333 1.6 6.4 0.03 1.55 1.50 90 1007.3
20260506183501 12 333 1.6 6.4 0.03 1.55 1.50 90 1007.2
20260506183201 12 333 1.6 6.4 0.03 1.55 1.50 90 1007.1
20260506182559 12 333 1.6 8.0 0.03 1.55 1.50 90 1007.1
20260506182059 12 333 1.6 8.0 0.03 1.55 1.50 89 1007.1
20260506181602 13 332 1.6 6.4 0.03 1.55 1.50 89 1007.0
20260506181059 13 336 0.0 4.8 0.03 1.55 1.50 90 1007.0
20260506180559 13 336 1.6 4.8 0.03 1.55 1.50 89 1006.9
20260506180116 13 344 0.0 3.2 0.03 1.55 1.50 89 1006.8
20260506175600 13 345 0.0 9.7 0.03 1.63 1.50 89 1006.9
20260506175103 13 346 1.6 9.7 0.03 1.63 1.50 89 1006.6
20260506174558 13 346 3.2 12.9 0.03 1.63 1.50 88 1006.6
20260506174059 13 347 3.2 12.9 0.00 1.60 1.45 88 1006.7
20260506173558 13 288 1.6 6.4 0.00 1.60 1.45 87 1006.6
20260506173133 13 281 1.6 6.4 0.00 1.60 1.45 86 1006.6
20260506172557 13 280 1.6 9.7 0.00 1.60 1.45 86 1006.5
20260506172057 14 258 3.2 9.7 0.00 1.60 1.45 85 1006.5
20260506171557 14 256 1.6 12.9 0.00 1.60 1.45 85 1006.5
20260506171057 14 256 1.6 12.9 0.00 1.60 1.45 85 1006.4
20260506170558 14 327 1.6 8.0 0.00 1.60 1.45 85 1006.4
20260506170057 15 339 1.6 12.9 0.00 1.60 1.45 85 1006.3
20260506165556 15 348 1.6 12.9 0.00 1.65 1.45 84 1006.2
20260506165056 15 286 1.6 9.7 0.00 1.65 1.45 85 1006.2
20260506164557 15 260 1.6 9.7 0.00 1.65 1.45 85 1006.2
20260506164055 15 328 1.6 8.0 0.00 1.65 1.45 85 1006.1
20260506163557 15 287 1.6 6.4 0.00 1.65 1.45 85 1006.1
20260506163103 15 246 0.0 4.8 0.00 1.65 1.45 86 1006.1
20260506162558 15 246 1.6 4.8 0.00 1.65 1.45 86 1006.1
20260506162055 15 258 0.0 6.4 0.00 1.65 1.45 86 1006.0
20260506161557 15 258 1.6 6.4 0.00 1.65 1.45 87 1006.1
20260506161054 15 259 0.0 1.6 0.00 1.65 1.45 87 1006.1
20260506160554 15 259 0.0 4.8 0.00 1.65 1.45 87 1006.2
20260506160054 15 259 1.6 4.8 0.00 1.65 1.45 87 1006.1
20260506155555 15 259 1.6 4.8 0.10 1.75 1.45 88 1006.0
20260506155054 15 258 0.0 4.8 0.25 1.75 1.45 88 1006.1
20260506154555 15 258 1.6 4.8 0.28 1.75 1.45 87 1006.1
20260506154054 15 258 1.6 8.0 0.28 1.75 1.45 88 1006.0
20260506153556 15 255 1.6 8.0 0.28 1.75 1.45 88 1006.0
20260506153057 15 330 1.6 6.4 0.28 1.75 1.45 89 1006.0
20260506152553 15 330 0.0 6.4 0.28 1.75 1.45 89 1006.0
20260506152053 14 330 1.6 4.8 0.28 1.75 1.45 89 1005.9
20260506151553 14 330 1.6 4.8 0.28 1.75 1.45 89 1005.9
20260506151053 14 330 0.0 6.4 0.28 1.75 1.45 89 1006.0
20260506150557 14 330 1.6 6.4 0.28 1.75 1.45 88 1005.9
20260506150057 14 330 1.6 4.8 0.28 1.75 1.45 87 1005.9
20260506145553 15 329 0.0 4.8 0.18 1.65 1.37 84 1005.9
20260506145052 15 329 1.6 9.7 0.03 1.45 1.22 81 1005.8
20260506144604 16 332 1.6 9.7 0.00 1.42 1.19 80 1005.8
20260506144052 16 330 1.6 14.5 0.00 1.42 1.19 77 1005.7
20260506143552 16 253 0.0 3.2 0.00 1.42 1.19 75 1005.6
20260506143052 16 253 0.0 3.2 0.00 1.42 1.19 73 1005.5
20260506142553 16 253 0.0 14.5 0.00 1.42 1.19 75 1005.4
20260506142051 17 253 1.6 16.1 0.00 1.42 1.19 75 1005.5
20260506141551 17 254 8.0 14.5 0.00 1.42 1.19 73 1005.4
20260506141051 17 238 8.0 16.1 0.00 1.42 1.19 72 1005.5
20260506140552 17 231 6.4 19.3 0.00 1.42 1.19 72 1005.4
20260506140051 17 244 11.3 19.3 0.00 1.42 1.19 71 1005.4
20260506135551 17 215 12.9 19.3 0.00 1.42 1.19 72 1005.4
20260506135052 17 238 9.7 16.1 0.00 1.42 1.19 70 1005.5
20260506134554 17 188 12.9 19.3 0.00 1.42 1.19 70 1005.5
20260506134050 17 195 9.7 19.3 0.00 1.42 1.19 70 1005.5
20260506133550 17 186 9.7 19.3 0.00 1.42 1.19 72 1005.5
20260506133056 17 192 9.7 17.7 0.00 1.42 1.19 70 1005.6
20260506132549 17 227 8.0 16.1 0.00 1.42 1.19 73 1005.6
20260506132051 17 225 9.7 17.7 0.00 1.42 1.19 73 1005.6
20260506131549 17 200 9.7 17.7 0.00 1.42 1.19 72 1005.7
20260506131049 17 204 6.4 16.1 0.00 1.42 1.19 74 1005.7
20260506130549 17 200 8.0 16.1 0.00 1.42 1.19 72 1005.7
20260506130051 17 190 11.3 17.7 0.00 1.42 1.19 73 1005.6
20260506125548 17 173 11.3 17.7 0.00 1.42 1.19 73 1005.7
20260506125048 17 213 9.7 20.9 0.00 1.42 1.19 73 1005.7
20260506124547 17 198 14.5 24.1 0.00 1.42 1.19 69 1005.8
20260506124047 17 248 12.9 19.3 0.00 1.42 1.19 71 1005.7
20260506123547 18 219 11.3 17.7 0.00 1.42 1.19 70 1005.7
20260506123047 18 220 9.7 16.1 0.00 1.42 1.19 70 1005.7
20260506122546 18 207 9.7 19.3 0.00 1.42 1.19 72 1005.7
20260506122045 17 209 11.3 17.7 0.00 1.42 1.19 72 1005.7
20260506121544 17 222 9.7 19.3 0.00 1.42 1.19 72 1005.8
20260506121044 17 220 11.3 19.3 0.00 1.42 1.19 74 1005.8
20260506120544 17 207 11.3 16.1 0.00 1.42 1.19 73 1005.8
20260506120044 16 223 9.7 17.7 0.00 1.42 1.19 73 1005.7
20260506115546 16 224 9.7 17.7 0.00 1.42 1.19 73 1005.8
20260506115043 16 219 6.4 16.1 0.00 1.42 1.19 74 1005.8
20260506114543 17 234 9.7 16.1 0.00 1.42 1.19 74 1005.9
20260506114043 17 198 8.0 16.1 0.00 1.42 1.19 76 1005.8
20260506113543 17 227 8.0 19.3 0.00 1.42 1.19 74 1005.9
20260506113043 17 240 9.7 19.3 0.00 1.42 1.19 74 1005.8
20260506112542 17 187 6.4 14.5 0.00 1.42 1.19 75 1005.9
20260506112043 17 220 9.7 14.5 0.00 1.42 1.19 76 1005.9
20260506111540 16 180 6.4 14.5 0.00 1.42 1.19 76 1005.9
20260506111040 16 209 6.4 16.1 0.00 1.42 1.19 76 1005.9
20260506110540 16 182 6.4 14.5 0.00 1.42 1.19 77 1005.8
20260506110042 16 207 6.4 12.9 0.00 1.42 1.19 76 1005.9
20260506105542 16 232 9.7 17.7 0.00 1.42 1.19 73 1005.9
20260506105043 16 198 8.0 17.7 0.00 1.42 1.19 73 1005.9
20260506104546 16 215 6.4 17.7 0.00 1.42 1.19 75 1005.9
20260506104040 16 218 11.3 16.1 0.00 1.42 1.19 74 1005.9
20260506103539 16 221 9.7 17.7 0.00 1.42 1.19 74 1005.9
20260506103041 16 242 9.7 17.7 0.00 1.42 1.19 75 1006.0
20260506102542 16 240 11.3 19.3 0.00 1.42 1.19 75 1006.0
20260506102038 16 258 11.3 19.3 0.00 1.42 1.19 75 1005.9
20260506101537 16 221 9.7 17.7 0.00 1.42 1.19 76 1006.0
20260506101037 16 208 9.7 19.3 0.00 1.42 1.19 78 1006.0
20260506100537 16 240 11.3 19.3 0.00 1.42 1.19 76 1005.9
20260506100037 16 243 9.7 16.1 0.00 1.42 1.19 77 1006.0
20260506095537 16 202 8.0 16.1 0.00 1.42 1.19 77 1006.0
20260506095036 16 178 8.0 17.7 0.00 1.42 1.19 76 1006.1
20260506094536 16 223 9.7 19.3 0.00 1.42 1.19 77 1006.0
20260506094036 16 173 12.9 22.5 0.00 1.42 1.19 78 1006.0